STARLINK-34472

Last updated on Thu Jul 03 2025 00:02:07 GMT+0000 (Coordinated Universal Time)

1 64434U 25129Y 25183.58335648 -.01564333 00000+0 -18575-1 0 9994 2 64434 70.0000 351.5351 0003308 264.5642 47.3183 15.63979867 3680
UTC large
Height (km)
Speed (km/s)
/
Latitude / Longitude
Inclination (degrees)
Orbital Period (minutes)
Azimuth
Elevation
Range (km)
Doppler Factor

Next 0 passes for location: London (51.5072 / 0.1276)

Sorry there are no passes over London.